Regional Weather Roundup
Issued by NWS

Home | Current Version | Previous Version | Graphics & Text | Print | Product List | Glossary On
Versions: 1 2 3 4 5 6 7 8 9 10 11 12 13 14 15 16 17 18 19 20 21 22 23 24 25 26 27 28 29 30 31 32 33 34 35 36 37 38 39 40 41 42 43 44 45 46 47 48 49 50
000
ASUS43 KMKX 201200
RWRWI

WISCONSIN REGIONAL WEATHER ROUNDUP
NATIONAL WEATHER SERVICE MILWAUKEE/SULLIVAN WI
700 AM CDT THU JUL 20 2017

NOTE: "FAIR" INDICATES FEW OR NO CLOUDS BELOW 12,000 FEET WITH NO
SIGNIFICANT WEATHER AND/OR OBSTRUCTIONS TO VISIBILITY.

WIZ001-002-006>008-014>016-023>028-201300-
NORTHWEST WISCONSIN

CITY           SKY/WX    TMP DP  RH WIND       PRES   REMARKS
SUPERIOR ARPT  NOT AVBL
ASHLAND        MOSUNNY   63  60  90 SW10      29.95R
6HR MIN TEMP:  54; 6HR MAX TEMP:  63;

HAYWARD        FOG       57  56  96 CALM      29.99R VSB 1/4
6HR MIN TEMP:  54; 6HR MAX TEMP:  60;

SIREN          SUNNY     60  59  97 CALM      29.98R
CUMBERLAND     FOG       59  57  94 CALM      30.00R VSB<1/4
RICE LAKE      FOG       60  59  97 CALM      30.01R VSB 1/2
6HR MIN TEMP:  58; 6HR MAX TEMP:  65;

CHETEK         PTSUNNY   60  60 100 CALM      30.00R FOG
LADYSMITH      SUNNY     61  60  97 CALM      30.01R FOG
EAU CLAIRE     NOT AVBL
MENOMONIE      FOG       67  67  99 CALM      30.00S VSB<1/4
6HR MIN TEMP:  66; 6HR MAX TEMP:  69; 6HR PCP:  0.18;

NEW RICHMOND   FOG       63  62  99 CALM      30.00R VSB<1/4
OSCEOLA        FOG       63  63 100 CALM      30.02R VSB<1/4
$$

WIZ003>005-009-010-017-018-201300-
NORTH CENTRAL WISCONSIN

CITY           SKY/WX    TMP DP  RH WIND       PRES   REMARKS
MANITOWISH WTR CLOUDY    61  61 100 CALM      29.98R
6HR MIN TEMP:  53; 6HR MAX TEMP:  63;

ARBOR VITAE    MOSUNNY   62  60  94 SW3       29.98R
WOODRUFF       MOSUNNY   62  60  94 SW3       29.98R
RHINELANDER    SUNNY     63  62  97 W5        30.00R
6HR MIN TEMP:  56; 6HR MAX TEMP:  63;

EAGLE RIVER    SUNNY     60  60 100 SW5       29.97R
LAND O LAKES   SUNNY     60  60 100 CALM      29.99S
6HR MIN TEMP:  53; 6HR MAX TEMP:  62;

PHILLIPS       SUNNY     62  62 100 CALM      29.99F
6HR MIN TEMP:  59; 6HR MAX TEMP:  64;

TOMAHAWK         N/A     58  57  97 CALM      29.99S FOG
MEDFORD        CLOUDY    65  65  97 W5        30.00R FOG
MERRILL        PTSUNNY   66  66 100 W5        30.00S
6HR MIN TEMP:  61; 6HR MAX TEMP:  66;

$$

WIZ029-030-035-036-043>047-201300-
CENTRAL WISCONSIN

CITY           SKY/WX    TMP DP  RH WIND       PRES   REMARKS
WAUSAU         CLOUDY    69  66  90 W8        29.99R
6HR MIN TEMP:  67; 6HR MAX TEMP:  69;

MOSINEE        CLOUDY    68  68 100 W8        30.01R
MARSHFIELD     CLOUDY    68  65  90 W7        30.00R
6HR MIN TEMP:  67; 6HR MAX TEMP:  68; 6HR PCP: TRACE;

STEVENS POINT  CLOUDY    66  66 100 W5        30.01R
WAUPACA        MOSUNNY   71  70  96 W3        29.99R
WAUTOMA        CLOUDY    69  67  93 W3        29.99S
6HR MIN TEMP:  67; 6HR MAX TEMP:  70;

WISC RAPIDS    CLOUDY    69  68  96 SW5       30.01R
6HR MIN TEMP:  67; 6HR MAX TEMP:  69; 6HR PCP:  0.09;

CAMP DOUGLAS   NOT AVBL
$$

WIZ011>013-019>022-031-037>040-048>050-201300-
NORTHEAST WISCONSIN

CITY           SKY/WX    TMP DP  RH WIND       PRES   REMARKS
ANTIGO         CLOUDY    66  64  95 W10       30.01R
6HR MIN TEMP:  61; 6HR MAX TEMP:  66;

SHAWANO        PTSUNNY   73  66  81 W8        29.97S
6HR MIN TEMP:  68; 6HR MAX TEMP:  73;

OCONTO         MOSUNNY   69  65  88 W9        29.95R
STURGEON BAY     N/A     71  67  87 W13G21    29.96R
6HR MIN TEMP:  66; 6HR MAX TEMP:  71;

GREEN BAY      PTSUNNY   71  69  93 W9        29.97S
6HR MIN TEMP:  66; 6HR MAX TEMP:  71;

MANITOWOC      NOT AVBL
APPLETON       MOSUNNY   68  66  94 W8        29.98R
CLINTONVILLE   CLOUDY    70  66  88 W7        29.99R
OSHKOSH        CLOUDY    69  66  90 NW3       29.97F
6HR MIN TEMP:  68; 6HR MAX TEMP:  72; 6HR PCP:  0.26;

$$

WIZ032>034-041-042-053>061-201300-
SOUTHWEST WISCONSIN

CITY           SKY/WX    TMP DP  RH WIND       PRES   REMARKS
LA CROSSE      CLOUDY    71  68  90 S7        29.97S
6HR MIN TEMP:  70; 6HR MAX TEMP:  72; 6HR PCP:  2.36;

SPARTA         CLOUDY    65  65  99 CALM      29.99S
6HR MIN TEMP:  64; 6HR MAX TEMP:  66; 6HR PCP:  1.55;

VIROQUA        CLOUDY    67  67 100 S7        30.00F
6HR MIN TEMP:  65; 6HR MAX TEMP:  67; 6HR PCP:  2.20;

BOSCOBEL       CLOUDY    70  67  90 CALM      29.99F
6HR MIN TEMP:  67; 6HR MAX TEMP:  73; 6HR PCP:  2.85;

PRAIRIE DU CHI CLOUDY    67  66  96 CALM      30.00F
PLATTEVILLE    CLOUDY    68  68 100 CALM      30.03R
$$

WIZ056-057-062-063-064-067-068-201300-
SOUTH CENTRAL WISCONSIN

CITY           SKY/WX    TMP DP  RH WIND       PRES   REMARKS
REEDSBURG      CLOUDY    67  67 100 CALM      29.99R
6HR MIN TEMP:  65; 6HR MAX TEMP:  67; 6HR PCP:  0.97;

BARABOO/DELLS  CLOUDY    66  65  94 S5        29.99R
LONE ROCK      NOT AVBL
MINERAL POINT  CLOUDY    68  68 100 SE8       30.01F
MADISON        CLOUDY    68  66  93 CALM      29.98F
6HR MIN TEMP:  67; 6HR MAX TEMP:  70; 6HR PCP:  0.68;

MIDDLETON      CLOUDY    69  69  99 CALM      30.00S
6HR MIN TEMP:  67; 6HR MAX TEMP:  71; 6HR PCP:  0.91;

WATERTOWN      LGT RAIN  66  66 100 SE9       29.95F
MONROE         CLOUDY    68  64  88 SE10      30.00R
JANESVILLE     MOSUNNY   68  68 100 SE12      29.97F
$$

WIZ051-052-058>065-066-070>072-201300-
SOUTHEAST WISCONSIN

CITY           SKY/WX    TMP DP  RH WIND       PRES   REMARKS
MILWAUKEE      LGT RAIN  70  68  93 SW9       30.03F
6HR MIN TEMP:  70; 6HR MAX TEMP:  73; 6HR PCP:  0.32;

WAUKESHA       PTSUNNY   64  64 100 SE15      29.99F
MILWAUKEE/TIMM RAIN      68  63  83 SW5       30.03S
RACINE         CLOUDY    68  68 100 N3        30.04F FOG
6HR MIN TEMP:  68; 6HR MAX TEMP:  70;

KENOSHA        TSTM      68  66  93 S8        30.03F FOG
6HR MIN TEMP:  68; 6HR MAX TEMP:  70; 6HR PCP:  0.35;

FOND DU LAC    CLOUDY    68  65  90 CALM      29.97F
6HR MIN TEMP:  68; 6HR MAX TEMP:  71; 6HR PCP:  0.35;

SHEBOYGAN      CLOUDY    68  67  96 W5        29.96F
6HR MIN TEMP:  68; 6HR MAX TEMP:  72; 6HR PCP:  0.19;

WEST BEND      LGT RAIN  66  64  94 SW7       29.96F
JUNEAU         CLOUDY    66  65  96 CALM      29.97F
$$

LSZ147-162-201300-
LAKE SUPERIOR

STATION/POSITION TIME  TEMP    WIND        PRES    WAVE
                       AIR SEA DIR/SP/G            HT/PER
                 (UTC) (F)     (DEG/KT/KT) (MB)    (FT/S)
W MID LAKE BUOY  1050   49 47  250/  8/ 10 1012.4R   0
DEVILS ISLAND    1100   58     240/ 10/ 12 1013.0F
SAXON HARBOR     1140   64     190/  6/  9 1013.2R
$$

LMZ867-665-643>646-201300-
LAKE MICHIGAN

STATION/POSITION TIME  TEMP    WIND        PRES    WAVE
                       AIR SEA DIR/SP/G            HT/PER
                 (UTC) (F)     (DEG/KT/KT) (MB)    (FT/S)
CHAMBERS ISLAND  1140   68     220/  5/ 10 1013.2R
S GREEN BAY BUOY 1130   71 71  230/ 16/ 19 1013.7R
N MID LAKE BUOY  1050   67 64  210/ 10/ 12 1012.7R   1
NORTHPORT PIER   1140   69     250/  1/  4 1013.2R
KEWAUNEE LAKESHO 1130   71     270/ 12/ 17 1013.6R
SHEBOYGAN LAKESH 1100   69     240/  5/  7 1014.7R
PORT WASHINGTON  1140   69     250/  9/ 17 1014.6F
ATWATER BUOY     1009   70 68  240/ 12/ 16 1016.9
MILWAUKEE LAKESH 1150   69     210/ 12/ 13   N/A
S MID LAKE BUOY  1050   69 69  280/ 10/ 12 1016.6R   2/ 4
KENOSHA   LAKESH 1100   69      CALM  /  3 1017.3
$$

TC  - TEMPERATURE IN CELSIUS
VSB - VISIBILITY IN STATUTE MILES
WCI - WIND CHILL INDEX
HX  - HEAT INDEX




USA.gov is the U.S. government's official web portal to all federal, state and local government web resources and services.